Temp
92 90 89 88 88 88 87 86 87 86 85 85 86 87 87 87 86 85 85 84 84 83 84 84 84 84 83 83 83 83 83 82 82 81 81 81 80 79 79 80 79 79 79 79 79 79 80 81 80 81 81 81 80 80 79 79 79 80 79 80 79 78 78
90 89 89 89 88 88 87 87 87 87 86 86 86 86 87 86 85 85 85 84 84 84 84 84 83 83 83 83 83 82 82 82 81 81 81 81 80 80 80 79 79 79 79 79 79 80 80 81 81 80 80 80 80 80 79 79 79 78 79 79 78 78 78
90 89 90 89 88 88 87 87 87 87 87 88 88 87 87 85 85 85 85 85 84 84 84 83 83 83 83 83 82 82 82 81 81 81 80 81 80 80 80 80 80 80 80 80 80 80 81 80 80 80 80 79 79 80 79 80 79 78 78 78 78 78 77
88 89 89 88 88 88 87 87 86 88 89 89 88 88 86 85 86 86 86 86 84 84 82 83 83 83 83 82 81 81 81 81 81 81 81 81 80 81 80 80 80 80 80 80 81 81 80 80 80 80 79 79 79 79 80 79 79 79 78 78 77 78 78
88 89 89 88 88 87 86 87 86 87 89 91 89 87 87 86 87 87 87 86 86 84 84 84 84 84 83 83 82 82 81 81 81 81 81 81 81 80 80 80 80 80 80 80 80 80 79 79 80 80 80 80 80 80 79 80 79 79 78 78 77 77 77
87 87 87 88 88 87 87 88 89 90 90 90 88 87 88 89 90 90 88 85 85 85 84 84 83 83 82 83 82 81 81 81 81 81 80 81 80 80 80 80 80 80 80 79 80 80 80 79 79 79 80 81 81 80 80 79 80 79 78 78 77 78 78
86 87 87 88 88 88 87 89 90 90 90 90 89 89 90 91 90 91 90 86 86 83 83 83 83 83 82 83 81 81 80 81 81 80 81 81 81 80 80 80 80 80 80 80 79 80 79 79 79 79 79 79 79 79 78 78 78 79 78 77 77 77 78
87 87 88 89 90 90 90 88 89 90 90 89 89 90 91 91 90 91 89 90 89 89 87 86 84 83 82 82 82 81 81 81 81 82 81 81 81 80 81 81 81 81 80 79 80 80 80 79 80 80 79 79 79 78 79 78 78 79 79 78 77 77 78
88 88 88 90 91 91 91 89 89 88 87 86 86 86 88 88 90 89 88 88 88 87 87 89 87 84 83 82 81 81 81 81 81 81 81 80 81 82 82 84 83 82 80 80 80 80 80 79 79 79 78 78 78 78 78 78 78 78 78 77 76 75 76
86 86 87 90 90 91 89 89 87 85 84 84 84 85 86 87 87 88 88 89 90 88 87 87 87 86 83 82 81 81 81 80 81 81 81 81 82 82 83 84 84 84 82 81 81 80 80 80 79 79 78 78 78 78 78 78 78 78 78 77 77 75 75
87 85 86 87 87 87 87 87 84 82 82 82 83 84 84 85 85 86 86 88 90 90 89 87 86 85 84 83 82 82 80 80 81 81 81 81 83 83 84 86 85 83 82 81 80 80 80 80 80 79 79 78 78 78 78 78 78 78 78 78 77 77 76
85 85 84 85 85 85 84 84 83 82 82 82 83 84 83 83 84 85 85 86 89 89 87 87 87 86 84 85 83 81 81 81 81 81 81 81 82 82 82 82 82 83 85 84 83 82 82 81 80 80 79 79 79 78 78 78 78 78 77 77 77 76 76
85 84 83 84 83 84 83 82 81 82 82 83 84 84 84 84 84 85 84 85 87 87 87 85 84 83 83 83 83 81 81 81 81 81 82 81 81 82 83 84 85 85 83 84 84 83 82 82 81 80 80 79 79 79 79 78 78 77 77 76 76 75 74
82 84 84 83 83 82 81 81 81 82 82 83 84 84 85 85 85 84 84 85 86 87 87 86 83 82 82 81 81 80 81 81 82 82 81 82 81 81 81 81 81 81 81 82 82 84 82 82 81 81 81 80 80 79 79 78 78 77 77 76 75 75 74
83 83 83 82 81 81 81 81 81 81 82 83 83 83 84 85 85 84 84 86 85 87 86 85 83 81 81 81 80 80 81 81 82 82 82 81 81 80 80 80 80 80 81 81 81 82 83 82 81 80 79 80 80 79 79 78 77 78 77 75 75 75 75
83 83 82 82 81 82 81 82 81 82 82 82 83 82 83 83 83 84 84 85 86 84 85 84 82 80 80 81 80 81 81 81 81 81 81 80 80 80 80 80 80 81 81 81 81 81 81 80 80 81 80 80 80 79 78 78 78 72 64 66 72 74 74
83 83 83 82 82 82 82 82 82 82 82 82 83 83 82 83 84 84 87 87 87 84 85 84 81 80 80 80 81 81 81 80 80 80 80 80 80 80 79 79 79 80 80 80 80 80 79 79 79 80 81 80 80 79 78 78 78 66 63 62 62 69 73
83 82 83 82 82 82 82 82 82 82 82 82 82 83 83 83 84 84 85 86 86 87 86 83 82 81 80 81 81 81 80 80 80 80 80 80 79 79 79 79 79 79 79 79 79 80 80 79 79 79 79 80 80 79 78 79 71 63 62 62 62 64 70
83 83 83 82 81 81 82 84 84 83 83 83 83 83 85 85 85 84 84 84 85 85 84 83 83 81 81 81 81 81 81 80 80 80 79 79 79 79 79 79 79 79 79 79 80 80 78 78 79 79 79 79 78 78 80 80 68 62 61 62 61 61 64
83 84 84 84 83 83 83 84 85 85 85 84 85 88 87 87 85 85 86 86 85 83 82 82 82 82 81 81 81 81 81 80 80 80 80 80 80 79 79 78 78 79 80 80 80 79 79 79 79 79 78 78 78 78 79 80 68 61 61 60 59 59 62
82 82 82 83 82 84 83 84 84 84 84 85 88 88 87 85 86 86 86 85 84 84 82 82 82 81 81 81 81 81 81 81 80 80 80 80 79 79 78 78 78 79 79 80 79 79 78 78 78 79 79 79 79 79 79 80 65 62 60 59 57 57 60
84 84 83 84 83 83 83 84 83 84 84 87 87 88 88 86 88 87 86 86 85 83 83 82 81 81 81 81 82 81 81 81 81 80 80 79 79 78 78 78 78 78 79 79 80 80 80 80 80 79 79 79 79 79 78 80 62 61 60 58 57 57 66
88 86 85 85 86 85 84 85 85 86 85 86 86 86 86 88 88 87 86 86 85 83 83 83 81 81 81 81 82 82 82 82 81 80 80 80 79 78 78 78 78 79 79 78 79 80 80 79 80 79 79 79 79 78 78 80 67 57 57 56 55 59 70
88 87 86 87 85 86 84 85 86 86 87 86 85 86 87 88 88 86 84 84 84 85 84 83 82 82 82 82 83 82 82 82 81 80 80 80 79 79 79 80 80 80 80 79 79 79 79 79 76 75 75 78 77 80 79 80 69 54 54 53 55 60 71
89 89 87 87 86 85 84 84 85 86 86 85 84 86 87 87 87 85 83 83 84 85 83 82 82 82 82 83 83 83 83 83 82 81 80 80 80 80 79 79 78 77 75 74 76 75 75 76 75 75 74 74 77 74 75 75 72 55 53 53 55 61 71
84 85 85 86 87 86 84 84 84 84 84 84 84 86 86 87 86 84 83 84 85 84 83 82 83 84 84 84 84 83 82 82 81 80 80 80 80 80 79 76 76 77 76 76 78 77 77 76 75 73 72 71 71 74 78 75 75 75 53 52 53 55 68
85 86 85 87 86 84 85 84 83 83 84 85 85 87 87 86 85 83 83 82 82 81 83 84 84 84 84 84 83 83 82 82 82 81 81 81 81 81 78 78 78 78 77 77 78 76 75 75 74 72 69 71 74 74 72 76 81 78 58 55 54 55 57
86 86 88 87 84 83 85 85 83 84 87 86 87 87 87 85 82 82 82 81 81 82 85 85 84 84 83 82 82 82 82 82 81 81 81 81 80 78 77 78 78 78 77 78 76 74 74 74 72 71 72 73 74 74 74 73 73 79 65 56 54 53 54
83 84 85 83 83 84 85 84 83 85 86 89 90 86 85 84 81 81 81 80 81 84 85 85 84 82 82 81 81 80 80 81 80 80 81 79 78 78 77 77 77 77 76 75 74 73 72 72 73 73 73 73 73 73 72 69 74 65 72 61 55 54 53
84 85 85 89 89 86 86 83 84 85 86 90 88 86 84 82 80 80 80 80 83 84 83 82 82 82 81 80 80 80 80 81 81 80 79 79 78 77 76 76 76 76 75 74 74 73 72 72 72 72 72 72 70 71 70 68 69 66 62 66 59 53 50
84 84 85 86 89 87 86 86 84 84 85 84 82 82 82 82 80 79 78 81 83 82 82 81 80 80 79 80 80 80 80 79 80 79 79 79 79 77 76 76 76 74 74 74 74 73 72 72 73 71 71 71 71 69 66 68 71 70 65 61 63 56 51
83 84 85 85 83 82 84 85 84 83 82 82 82 81 80 81 81 78 79 82 82 82 81 81 79 79 78 80 79 79 79 78 79 79 78 78 79 78 77 76 76 75 75 74 74 73 72 71 72 72 72 70 68 66 69 71 69 73 74 69 67 65 60
82 83 83 83 82 81 82 83 84 83 83 83 83 83 84 82 82 81 81 82 81 81 81 80 79 78 78 78 78 78 77 76 78 79 78 77 78 79 78 78 77 76 74 74 74 73 72 72 72 72 72 71 70 70 69 73 69 67 69 69 68 70 68
81 81 81 82 80 81 82 81 81 82 81 80 81 81 81 83 83 83 83 84 85 85 80 78 78 77 78 78 78 77 77 77 73 74 78 79 78 79 79 78 78 77 75 75 75 73 72 73 72 72 72 72 73 71 71 69 70 67 63 62 62 62 64
81 80 79 79 78 79 79 79 79 78 78 78 78 79 79 79 83 86 82 84 84 81 80 79 78 77 77 77 78 77 77 77 77 77 78 77 77 77 76 74 75 74 74 68 68 69 71 72 73 73 73 73 72 68 67 66 64 61 51 50 47 49 56
80 80 79 79 79 78 77 76 76 76 76 76 77 77 78 78 79 81 85 84 83 81 79 77 77 77 78 79 80 81 80 79 80 79 76 78 77 77 70 52 47 56 71 67 53 48 46 51 64 63 67 71 69 64 62 60 58 48 42 42 41 40 40
80 80 79 80 79 77 77 76 76 76 75 76 76 77 77 77 79 79 82 81 81 81 79 78 77 78 80 79 80 77 78 78 78 78 75 75 75 75 75 70 60 45 45 51 51 47 42 42 42 44 48 59 67 59 50 49 45 42 41 41 40 40 40
80 79 79 80 79 77 76 76 76 75 75 76 77 77 77 79 79 78 82 80 80 80 78 78 77 76 79 79 78 73 73 76 75 75 75 74 74 74 73 69 59 58 45 43 46 45 42 42 41 41 43 44 49 56 62 52 46 41 42 41 41 41 41
MSLP
1011.28 1011.92 1012.28 1012.57 1013.01 1013.24 1013.57 1013.89 1014.04 1014.45 1014.77 1015.01 1015.12 1015.24 1015.41 1015.60 1015.80 1016.09 1016.33 1016.48 1016.65 1016.84 1016.77 1016.72 1016.80 1016.84 1016.92 1016.97 1016.97 1017.01 1017.01 1017.12 1017.16 1017.28 1017.33 1017.33 1017.41 1017.48 1017.53 1017.36 1017.36 1017.28 1017.12 1017.09 1016.84 1016.77 1016.48 1016.28 1016.16 1016.01 1015.84 1015.77 1015.72 1015.65 1015.53 1015.41 1015.33 1015.16 1015.04 1014.92 1014.84 1014.84 1014.72
1011.24 1011.53 1011.89 1012.21 1012.72 1012.92 1013.21 1013.48 1013.77 1014.04 1014.41 1014.65 1014.84 1015.04 1015.12 1015.48 1015.68 1015.97 1016.12 1016.24 1016.36 1016.53 1016.57 1016.60 1016.72 1016.77 1016.77 1016.84 1016.84 1016.92 1017.04 1017.04 1017.09 1017.12 1017.16 1017.24 1017.24 1017.24 1017.21 1017.24 1017.24 1017.16 1017.01 1016.84 1016.72 1016.53 1016.41 1016.24 1016.09 1016.01 1015.92 1015.72 1015.68 1015.53 1015.45 1015.36 1015.28 1015.21 1015.04 1014.89 1014.84 1014.77 1014.60
1011.01 1011.21 1011.45 1011.97 1012.41 1012.65 1013.01 1013.24 1013.57 1013.65 1013.97 1014.21 1014.45 1014.80 1015.01 1015.28 1015.36 1015.65 1015.89 1016.04 1016.28 1016.33 1016.36 1016.48 1016.57 1016.60 1016.65 1016.68 1016.84 1016.89 1016.89 1016.92 1016.97 1017.04 1017.16 1017.12 1017.16 1017.12 1017.04 1017.04 1017.01 1016.92 1016.72 1016.60 1016.53 1016.41 1016.21 1016.16 1015.97 1015.89 1015.80 1015.77 1015.57 1015.45 1015.33 1015.21 1015.12 1015.09 1014.97 1014.84 1014.77 1014.60 1014.53
1010.77 1010.97 1011.04 1011.53 1011.89 1012.12 1012.48 1012.89 1013.28 1013.41 1013.53 1013.68 1014.09 1014.36 1014.72 1015.04 1015.04 1015.24 1015.45 1015.68 1016.04 1016.21 1016.48 1016.41 1016.41 1016.48 1016.53 1016.68 1016.77 1016.77 1016.84 1016.84 1016.84 1016.89 1016.92 1016.89 1016.97 1016.89 1016.89 1016.80 1016.68 1016.60 1016.60 1016.48 1016.28 1016.21 1016.09 1015.97 1015.84 1015.72 1015.65 1015.57 1015.45 1015.33 1015.21 1015.16 1015.01 1014.92 1014.80 1014.72 1014.68 1014.48 1014.33
1010.68 1010.68 1010.97 1011.53 1011.89 1012.21 1012.53 1012.77 1013.04 1013.21 1013.28 1013.33 1013.65 1014.04 1014.36 1014.65 1014.80 1015.01 1015.21 1015.36 1015.53 1015.97 1016.01 1016.12 1016.09 1016.21 1016.28 1016.41 1016.48 1016.53 1016.60 1016.68 1016.68 1016.65 1016.68 1016.68 1016.68 1016.68 1016.77 1016.72 1016.60 1016.53 1016.45 1016.28 1016.09 1016.04 1015.97 1015.89 1015.72 1015.57 1015.41 1015.28 1015.16 1015.09 1015.04 1014.92 1014.84 1014.72 1014.65 1014.57 1014.57 1014.36 1014.21
1010.77 1010.80 1010.77 1011.12 1011.53 1011.89 1012.12 1012.33 1012.53 1012.77 1013.04 1013.24 1013.60 1014.04 1014.21 1014.36 1014.45 1014.72 1014.97 1015.28 1015.48 1015.57 1015.72 1015.92 1016.09 1016.16 1016.33 1016.21 1016.28 1016.36 1016.41 1016.45 1016.45 1016.48 1016.57 1016.53 1016.57 1016.57 1016.57 1016.48 1016.45 1016.36 1016.24 1016.12 1015.89 1015.80 1015.72 1015.68 1015.60 1015.48 1015.36 1015.12 1014.92 1014.89 1014.80 1014.77 1014.60 1014.53 1014.53 1014.41 1014.36 1014.21 1014.04
1010.33 1010.41 1010.41 1010.65 1010.97 1011.41 1011.77 1011.92 1012.12 1012.45 1012.60 1012.84 1013.16 1013.60 1013.77 1013.89 1014.16 1014.21 1014.48 1015.12 1015.24 1015.68 1015.80 1015.89 1015.89 1015.97 1016.09 1016.04 1016.16 1016.28 1016.41 1016.36 1016.33 1016.36 1016.24 1016.28 1016.28 1016.36 1016.33 1016.24 1016.12 1016.09 1015.97 1015.84 1015.84 1015.65 1015.65 1015.57 1015.48 1015.36 1015.24 1015.09 1015.01 1014.89 1014.77 1014.72 1014.57 1014.33 1014.28 1014.33 1014.24 1014.09 1013.92
1009.72 1010.16 1010.01 1010.12 1010.41 1010.72 1011.16 1011.60 1011.89 1012.16 1012.45 1012.60 1013.16 1013.45 1013.60 1013.53 1013.80 1014.04 1014.45 1014.60 1014.84 1014.92 1015.24 1015.41 1015.68 1015.84 1015.92 1015.97 1015.97 1016.12 1016.16 1016.12 1016.04 1016.04 1016.04 1016.16 1016.12 1016.12 1016.04 1015.92 1015.89 1015.77 1015.72 1015.77 1015.57 1015.45 1015.45 1015.36 1015.24 1015.12 1015.09 1015.04 1014.92 1014.80 1014.65 1014.57 1014.45 1014.28 1014.21 1014.24 1014.21 1014.12 1013.89
1009.36 1009.48 1009.60 1009.60 1009.92 1010.24 1010.65 1011.16 1011.48 1011.97 1012.45 1012.77 1013.04 1013.28 1013.41 1013.57 1013.72 1013.97 1014.33 1014.45 1014.57 1014.80 1014.97 1014.84 1015.12 1015.41 1015.68 1015.80 1015.92 1016.01 1016.01 1016.01 1016.01 1015.97 1016.01 1016.04 1015.92 1015.84 1015.65 1015.41 1015.36 1015.33 1015.53 1015.53 1015.36 1015.21 1015.24 1015.21 1015.09 1015.04 1015.01 1014.92 1014.84 1014.72 1014.65 1014.48 1014.28 1014.16 1014.09 1014.12 1014.16 1014.21 1014.04
1009.33 1009.68 1009.53 1009.41 1009.53 1009.89 1010.36 1010.84 1011.33 1012.01 1012.65 1012.97 1013.16 1013.33 1013.48 1013.60 1013.68 1013.84 1014.04 1014.21 1014.28 1014.60 1014.72 1014.80 1014.92 1015.12 1015.41 1015.68 1015.77 1015.77 1015.89 1015.97 1015.89 1015.89 1015.84 1015.80 1015.65 1015.60 1015.41 1015.21 1015.04 1014.84 1015.04 1015.12 1015.04 1015.09 1014.97 1014.89 1014.84 1014.80 1014.77 1014.77 1014.68 1014.57 1014.48 1014.36 1014.16 1014.01 1013.92 1013.97 1013.97 1013.97 1013.84
1009.09 1009.41 1009.60 1009.72 1009.89 1010.09 1010.41 1010.84 1011.48 1012.01 1012.36 1012.77 1012.97 1013.16 1013.36 1013.57 1013.72 1013.84 1014.09 1014.04 1014.04 1014.09 1014.21 1014.57 1014.72 1015.01 1015.21 1015.41 1015.57 1015.65 1015.77 1015.80 1015.68 1015.72 1015.68 1015.65 1015.41 1015.28 1015.04 1014.84 1014.89 1014.89 1015.01 1014.92 1014.92 1014.84 1014.72 1014.60 1014.48 1014.48 1014.48 1014.53 1014.45 1014.36 1014.28 1014.12 1013.97 1013.92 1013.89 1013.80 1013.68 1013.65 1013.60
1009.24 1009.48 1009.72 1009.80 1010.01 1010.16 1010.48 1010.68 1011.09 1011.57 1012.04 1012.41 1012.65 1012.92 1013.21 1013.36 1013.48 1013.68 1013.89 1014.01 1013.77 1013.97 1014.16 1014.36 1014.53 1014.77 1015.04 1015.12 1015.33 1015.53 1015.60 1015.60 1015.57 1015.53 1015.48 1015.41 1015.28 1015.21 1015.09 1015.01 1014.89 1014.68 1014.41 1014.33 1014.45 1014.33 1014.21 1014.21 1014.21 1014.21 1014.21 1014.09 1014.09 1014.01 1013.92 1013.77 1013.72 1013.77 1013.77 1013.68 1013.60 1013.53 1013.48
1009.28 1009.45 1009.68 1009.89 1010.09 1010.16 1010.41 1010.80 1011.09 1011.21 1011.65 1011.97 1012.24 1012.53 1012.84 1013.09 1013.24 1013.45 1013.77 1013.89 1013.72 1013.77 1014.01 1014.28 1014.57 1014.84 1015.01 1015.09 1015.09 1015.28 1015.41 1015.36 1015.33 1015.28 1015.21 1015.12 1015.12 1015.01 1014.89 1014.77 1014.60 1014.53 1014.57 1014.36 1014.24 1014.21 1014.09 1013.89 1013.89 1013.89 1013.84 1013.77 1013.72 1013.68 1013.60 1013.53 1013.48 1013.57 1013.57 1013.53 1013.48 1013.48 1013.45
1009.24 1009.45 1009.48 1009.65 1010.01 1010.28 1010.53 1010.72 1010.89 1011.16 1011.45 1011.77 1012.01 1012.28 1012.48 1012.60 1012.80 1013.21 1013.53 1013.68 1013.60 1013.60 1013.80 1014.04 1014.45 1014.72 1014.92 1015.01 1015.12 1015.21 1015.21 1015.09 1015.01 1015.01 1015.01 1014.92 1014.89 1014.84 1014.77 1014.72 1014.72 1014.65 1014.45 1014.24 1014.16 1013.92 1013.84 1013.77 1013.65 1013.53 1013.48 1013.41 1013.36 1013.33 1013.28 1013.33 1013.41 1013.36 1013.33 1013.41 1013.36 1013.28 1013.16
1009.28 1009.36 1009.53 1009.77 1009.84 1009.97 1010.21 1010.53 1010.68 1010.97 1011.21 1011.48 1011.72 1012.16 1012.33 1012.48 1012.68 1012.92 1013.21 1013.16 1013.36 1013.41 1013.65 1013.89 1014.33 1014.65 1014.77 1014.84 1015.01 1015.01 1014.92 1014.84 1014.80 1014.72 1014.72 1014.72 1014.68 1014.72 1014.68 1014.68 1014.65 1014.45 1014.28 1014.12 1013.97 1013.68 1013.57 1013.45 1013.41 1013.41 1013.36 1013.16 1013.09 1013.12 1013.09 1013.12 1013.21 1013.09 1013.16 1013.33 1013.24 1013.09 1012.97
1008.97 1009.12 1009.24 1009.41 1009.57 1009.65 1009.80 1009.92 1010.24 1010.57 1010.89 1011.24 1011.60 1012.04 1012.16 1012.41 1012.68 1012.89 1013.09 1013.16 1013.21 1013.41 1013.45 1013.72 1014.24 1014.53 1014.60 1014.65 1014.68 1014.60 1014.60 1014.65 1014.65 1014.65 1014.57 1014.60 1014.65 1014.60 1014.53 1014.48 1014.41 1014.21 1014.09 1013.97 1013.77 1013.57 1013.41 1013.36 1013.33 1013.21 1013.16 1013.01 1012.89 1012.89 1012.92 1012.97 1012.84 1013.04 1013.36 1013.53 1013.33 1013.09 1012.80
1008.57 1008.60 1008.57 1008.84 1009.12 1009.28 1009.41 1009.60 1009.80 1010.16 1010.57 1010.92 1011.28 1011.65 1011.92 1012.16 1012.33 1012.53 1012.57 1012.68 1012.80 1013.16 1013.28 1013.57 1014.04 1014.24 1014.33 1014.45 1014.33 1014.33 1014.36 1014.45 1014.48 1014.45 1014.48 1014.45 1014.48 1014.36 1014.33 1014.36 1014.21 1014.01 1013.92 1013.80 1013.65 1013.48 1013.41 1013.28 1013.24 1013.09 1012.89 1012.80 1012.77 1012.80 1012.77 1012.68 1012.57 1012.92 1013.21 1013.36 1013.45 1013.16 1012.72
1008.33 1008.36 1008.36 1008.53 1008.68 1008.89 1009.21 1009.33 1009.57 1009.84 1010.16 1010.48 1010.84 1011.21 1011.53 1011.84 1012.04 1012.33 1012.48 1012.45 1012.60 1012.72 1012.89 1013.36 1013.68 1013.89 1014.01 1014.01 1014.04 1014.09 1014.21 1014.21 1014.21 1014.24 1014.24 1014.21 1014.24 1014.16 1014.09 1014.04 1013.97 1013.89 1013.72 1013.57 1013.45 1013.24 1013.09 1013.12 1013.01 1012.84 1012.68 1012.57 1012.57 1012.57 1012.48 1012.33 1012.36 1012.72 1012.92 1013.12 1013.16 1013.09 1012.80
1007.97 1008.01 1008.09 1008.24 1008.53 1008.68 1008.68 1008.77 1008.89 1009.24 1009.60 1010.04 1010.57 1010.97 1011.04 1011.24 1011.72 1012.09 1012.09 1012.33 1012.36 1012.53 1012.84 1013.16 1013.33 1013.57 1013.68 1013.68 1013.77 1013.84 1013.89 1013.92 1014.01 1014.04 1014.01 1013.97 1013.92 1013.89 1013.77 1013.80 1013.77 1013.68 1013.53 1013.36 1013.12 1013.04 1013.09 1012.97 1012.72 1012.60 1012.48 1012.45 1012.45 1012.36 1012.12 1011.97 1012.01 1012.36 1012.65 1012.77 1012.89 1012.80 1012.80
1007.65 1007.60 1007.72 1007.84 1008.01 1008.24 1008.36 1008.41 1008.53 1008.80 1009.12 1009.57 1009.97 1010.21 1010.41 1010.65 1011.21 1011.45 1011.53 1011.80 1012.09 1012.53 1012.77 1013.01 1013.12 1013.21 1013.36 1013.45 1013.53 1013.57 1013.60 1013.65 1013.68 1013.77 1013.72 1013.65 1013.65 1013.57 1013.60 1013.72 1013.65 1013.41 1013.16 1013.01 1012.84 1012.89 1012.80 1012.60 1012.53 1012.33 1012.28 1012.28 1012.24 1012.09 1011.89 1011.65 1012.21 1012.28 1012.33 1012.48 1012.53 1012.48 1012.60
1007.60 1007.57 1007.72 1007.80 1008.01 1007.97 1008.12 1008.21 1008.53 1008.80 1009.16 1009.45 1009.60 1009.89 1010.33 1010.77 1010.89 1011.09 1011.41 1011.60 1012.01 1012.24 1012.57 1012.77 1012.89 1013.04 1013.09 1013.21 1013.21 1013.24 1013.33 1013.36 1013.36 1013.41 1013.41 1013.41 1013.41 1013.41 1013.48 1013.53 1013.33 1013.21 1013.01 1012.80 1012.80 1012.72 1012.65 1012.53 1012.36 1012.12 1011.92 1011.89 1011.80 1011.68 1011.57 1011.45 1011.65 1011.80 1011.97 1012.09 1012.16 1012.21 1012.41
1007.12 1007.24 1007.57 1007.45 1007.72 1007.84 1008.04 1008.21 1008.45 1008.68 1009.04 1009.01 1009.41 1009.68 1009.92 1010.36 1010.41 1010.80 1011.16 1011.24 1011.72 1011.97 1012.21 1012.41 1012.65 1012.72 1012.77 1012.89 1012.89 1012.97 1012.92 1013.01 1013.04 1013.09 1013.12 1013.21 1013.24 1013.33 1013.36 1013.24 1013.09 1013.04 1012.80 1012.68 1012.48 1012.33 1012.21 1012.04 1011.84 1011.80 1011.77 1011.65 1011.60 1011.53 1011.41 1011.16 1011.33 1011.41 1011.57 1011.68 1011.80 1012.04 1012.01
1006.24 1006.60 1006.77 1006.97 1007.09 1007.48 1007.65 1007.77 1008.09 1008.24 1008.60 1009.01 1009.24 1009.60 1009.84 1009.80 1010.04 1010.53 1010.84 1011.16 1011.41 1011.65 1011.89 1012.04 1012.36 1012.45 1012.48 1012.57 1012.53 1012.53 1012.53 1012.57 1012.72 1012.80 1012.84 1012.89 1013.01 1013.04 1013.04 1013.01 1012.84 1012.68 1012.48 1012.60 1012.41 1012.24 1012.09 1011.92 1011.72 1011.60 1011.60 1011.57 1011.41 1011.45 1011.21 1010.89 1010.89 1011.09 1011.24 1011.36 1011.48 1011.89 1011.33
1005.89 1006.09 1006.36 1006.60 1006.80 1007.12 1007.53 1007.68 1007.84 1008.04 1008.45 1008.80 1009.09 1009.16 1009.28 1009.48 1009.77 1010.28 1010.77 1011.01 1011.12 1011.36 1011.60 1011.80 1011.97 1011.97 1012.04 1012.16 1012.09 1012.09 1012.12 1012.24 1012.36 1012.53 1012.57 1012.65 1012.72 1012.68 1012.60 1012.53 1012.41 1012.36 1012.28 1012.48 1012.41 1012.28 1012.21 1011.92 1012.12 1012.36 1012.21 1011.68 1011.65 1011.24 1010.97 1010.72 1010.60 1010.77 1010.92 1011.09 1011.24 1011.33 1011.01
1005.92 1005.92 1006.33 1006.48 1006.80 1007.28 1007.45 1007.68 1007.80 1008.01 1008.28 1008.65 1009.16 1009.01 1009.01 1009.21 1009.53 1010.04 1010.57 1010.72 1010.84 1010.92 1011.24 1011.41 1011.48 1011.53 1011.60 1011.65 1011.57 1011.60 1011.77 1011.89 1012.01 1012.16 1012.24 1012.36 1012.28 1012.16 1012.33 1012.45 1012.60 1012.77 1013.04 1013.01 1012.80 1012.89 1012.72 1012.41 1012.45 1012.41 1012.48 1012.48 1011.80 1011.28 1011.53 1011.36 1010.53 1010.41 1010.57 1010.72 1010.80 1011.04 1010.72
1006.45 1006.41 1006.60 1006.48 1006.57 1006.89 1007.24 1007.53 1007.97 1008.36 1008.60 1008.84 1008.84 1008.53 1008.68 1008.92 1009.28 1009.77 1010.09 1010.33 1010.45 1010.72 1010.89 1010.92 1010.92 1010.89 1010.89 1010.97 1011.12 1011.28 1011.48 1011.57 1011.77 1011.89 1011.97 1012.01 1011.92 1011.80 1011.97 1012.36 1012.48 1012.41 1012.48 1012.57 1012.36 1012.41 1012.33 1012.33 1012.33 1012.41 1012.48 1012.57 1012.57 1011.89 1011.16 1011.09 1010.72 1009.97 1010.28 1010.41 1010.60 1010.80 1010.65
1006.24 1006.33 1006.60 1006.65 1006.80 1006.84 1007.36 1007.68 1008.01 1008.24 1008.28 1008.28 1008.16 1008.21 1008.36 1008.68 1009.21 1009.68 1009.92 1010.16 1010.45 1010.57 1010.41 1010.33 1010.41 1010.45 1010.57 1010.72 1010.92 1011.12 1011.28 1011.28 1011.41 1011.57 1011.53 1011.53 1011.53 1011.57 1011.80 1011.89 1011.97 1012.01 1012.12 1012.12 1012.09 1012.16 1012.21 1012.24 1012.24 1012.28 1012.24 1012.01 1011.60 1011.57 1011.80 1010.92 1009.92 1009.77 1010.09 1010.24 1010.48 1010.68 1010.84
1006.24 1006.33 1006.16 1006.28 1006.72 1007.16 1007.41 1007.68 1008.04 1008.16 1008.09 1008.04 1008.09 1008.16 1008.41 1008.80 1009.33 1009.53 1009.80 1010.16 1010.36 1010.09 1009.84 1009.92 1010.04 1010.21 1010.48 1010.80 1010.97 1011.01 1011.04 1011.12 1011.12 1011.16 1011.24 1011.21 1011.45 1011.77 1011.80 1011.68 1011.65 1011.72 1011.80 1011.80 1011.92 1012.04 1012.01 1012.01 1012.09 1012.04 1011.84 1011.48 1011.21 1011.01 1011.04 1011.01 1010.57 1009.84 1009.92 1010.21 1010.45 1010.60 1010.72
1006.72 1006.80 1006.84 1007.12 1007.41 1007.33 1007.48 1007.92 1008.21 1008.24 1008.04 1007.72 1007.89 1008.21 1008.48 1008.89 1009.41 1009.60 1009.68 1010.04 1009.89 1009.57 1009.57 1009.68 1009.89 1010.21 1010.48 1010.68 1010.84 1010.97 1010.97 1010.97 1011.01 1011.04 1011.01 1011.24 1011.36 1011.48 1011.60 1011.57 1011.57 1011.57 1011.65 1011.80 1011.92 1012.01 1012.01 1011.92 1011.84 1011.68 1011.45 1011.21 1011.04 1010.97 1010.80 1011.16 1010.24 1010.28 1010.01 1010.09 1010.33 1010.45 1010.57
1006.41 1006.53 1006.77 1006.53 1006.65 1007.16 1007.41 1007.89 1008.01 1008.09 1007.89 1007.60 1007.68 1008.04 1008.36 1008.77 1009.36 1009.48 1009.68 1009.68 1009.28 1009.28 1009.53 1009.65 1009.77 1009.92 1010.33 1010.60 1010.77 1010.77 1010.77 1010.80 1010.84 1010.84 1010.92 1011.09 1011.12 1011.21 1011.36 1011.36 1011.41 1011.45 1011.60 1011.65 1011.77 1011.84 1011.89 1011.77 1011.65 1011.57 1011.45 1011.36 1011.28 1011.16 1011.04 1011.41 1010.92 1010.57 1010.16 1010.21 1010.21 1010.24 1010.28
1006.57 1006.68 1006.77 1006.89 1006.80 1006.97 1007.28 1007.65 1007.97 1007.97 1008.01 1008.01 1008.24 1008.33 1008.48 1008.65 1009.12 1009.41 1009.60 1009.16 1008.97 1009.28 1009.45 1009.60 1009.72 1010.01 1010.36 1010.57 1010.57 1010.65 1010.60 1010.72 1010.77 1010.80 1010.84 1010.80 1010.84 1011.04 1011.12 1011.21 1011.21 1011.45 1011.45 1011.53 1011.57 1011.65 1011.77 1011.65 1011.41 1011.45 1011.36 1011.36 1011.33 1011.24 1011.24 1011.12 1010.65 1010.57 1010.33 1010.16 1010.16 1010.04 1010.04
1006.60 1006.60 1006.72 1006.92 1007.24 1007.45 1007.41 1007.45 1007.65 1007.92 1008.24 1008.24 1008.24 1008.41 1008.53 1008.65 1008.84 1009.36 1009.16 1008.80 1008.80 1008.92 1009.21 1009.33 1009.65 1010.01 1010.41 1010.36 1010.45 1010.48 1010.57 1010.77 1010.68 1010.72 1010.80 1010.80 1010.65 1010.68 1010.72 1010.89 1011.04 1011.12 1011.21 1011.28 1011.33 1011.36 1011.45 1011.45 1011.28 1011.21 1011.12 1011.24 1011.41 1011.33 1010.84 1010.60 1010.80 1010.16 1010.04 1010.12 1010.12 1009.92 1009.84
1006.80 1006.84 1007.01 1007.21 1007.24 1007.41 1007.65 1007.68 1007.84 1008.01 1008.09 1008.33 1008.16 1008.24 1008.24 1008.48 1008.57 1008.65 1008.60 1008.68 1008.84 1008.89 1008.92 1009.21 1009.57 1009.97 1010.21 1010.33 1010.33 1010.48 1010.65 1010.80 1010.77 1010.68 1010.68 1010.77 1010.57 1010.48 1010.53 1010.57 1010.72 1010.84 1011.01 1011.04 1011.04 1011.12 1011.21 1011.24 1011.12 1010.97 1010.84 1010.97 1011.04 1010.92 1010.77 1010.33 1010.60 1010.84 1010.68 1010.60 1010.41 1010.04 1009.84
1006.89 1007.09 1007.09 1007.12 1007.41 1007.53 1007.65 1007.89 1008.12 1008.21 1008.36 1008.53 1008.41 1008.36 1008.45 1008.33 1008.41 1008.33 1008.33 1008.36 1008.57 1008.57 1008.92 1009.33 1009.65 1009.97 1010.01 1010.09 1010.21 1010.41 1010.53 1010.65 1010.97 1011.01 1010.57 1010.41 1010.36 1010.24 1010.21 1010.28 1010.33 1010.53 1010.65 1010.65 1010.72 1010.97 1011.12 1011.01 1011.01 1010.97 1010.84 1010.84 1010.72 1010.80 1010.68 1010.80 1010.72 1011.12 1011.57 1011.41 1011.21 1010.92 1010.48
1006.97 1007.16 1007.36 1007.68 1007.80 1007.80 1007.97 1008.16 1008.36 1008.53 1008.60 1008.68 1008.65 1008.60 1008.60 1008.65 1008.36 1007.97 1008.41 1008.33 1008.21 1008.68 1009.04 1009.33 1009.60 1009.77 1009.89 1010.04 1010.09 1010.28 1010.41 1010.36 1010.33 1010.33 1010.33 1010.33 1010.28 1010.16 1010.21 1010.57 1010.53 1010.53 1010.57 1011.21 1011.33 1011.36 1011.24 1011.16 1010.89 1010.84 1010.89 1010.84 1010.89 1011.16 1011.28 1011.36 1011.65 1012.04 1012.57 1012.60 1012.48 1012.24 1011.53
1007.01 1007.21 1007.53 1007.60 1007.68 1007.89 1008.16 1008.33 1008.41 1008.57 1008.72 1008.84 1008.72 1008.72 1008.77 1008.84 1008.72 1008.53 1008.16 1008.24 1008.48 1008.72 1009.04 1009.41 1009.60 1009.65 1009.68 1009.60 1009.68 1009.65 1009.84 1009.97 1009.92 1010.01 1010.24 1010.12 1010.09 1010.04 1010.92 1012.16 1012.16 1011.68 1010.92 1011.53 1012.53 1012.48 1012.45 1011.97 1011.84 1012.04 1011.72 1011.24 1011.33 1012.09 1012.28 1012.53 1012.72 1012.89 1012.77 1012.48 1012.21 1011.92 1011.89
1006.92 1007.16 1007.41 1007.41 1007.68 1008.01 1008.21 1008.41 1008.48 1008.57 1008.84 1008.89 1008.80 1008.84 1008.84 1008.84 1008.68 1008.60 1008.33 1008.53 1008.53 1008.68 1009.01 1009.24 1009.45 1009.41 1009.21 1009.41 1009.57 1009.68 1009.89 1009.97 1009.84 1009.84 1010.12 1010.24 1010.16 1010.21 1010.21 1011.12 1012.41 1012.80 1012.60 1012.48 1012.80 1012.84 1012.84 1012.84 1012.89 1012.97 1012.92 1012.33 1011.72 1012.45 1012.97 1013.04 1013.12 1012.97 1012.65 1012.36 1011.97 1011.77 1011.68
1006.89 1007.12 1007.28 1007.36 1007.68 1008.04 1008.28 1008.48 1008.60 1008.77 1008.97 1008.84 1008.84 1008.89 1008.80 1008.77 1008.65 1008.68 1008.41 1008.53 1008.57 1008.65 1008.92 1009.09 1009.28 1009.45 1009.24 1009.33 1009.57 1010.12 1010.28 1010.04 1010.04 1010.09 1010.09 1010.04 1010.16 1010.16 1010.28 1010.80 1012.12 1012.72 1013.28 1013.33 1013.16 1013.09 1013.12 1013.12 1013.16 1013.24 1013.21 1013.12 1012.89 1012.41 1012.28 1012.72 1012.92 1012.84 1012.48 1012.16 1011.89 1011.65 1011.53
Wind_Speed
17 16 15 13 13 14 14 14 14 13 12 11 11 12 11 9 9 8 8 7 7 7 5 4 3 2 2 1 1 1 1 1 1 1 1 1 1 2 3 3 4 4 4 4 4 4 5 5 6 5 5 5 5 5 5 5 6 6 6 7 7 7 8
16 16 15 14 14 15 15 14 13 13 12 12 11 12 10 11 9 9 8 8 7 6 5 4 4 3 2 1 1 2 2 1 1 1 1 1 1 2 2 3 4 4 5 4 4 5 5 6 6 6 6 5 5 5 5 5 5 6 6 6 7 7 7
16 15 15 14 14 14 15 14 13 12 13 12 12 12 11 11 10 10 9 8 8 6 5 5 4 3 2 2 2 3 2 2 1 2 2 2 2 3 3 4 4 4 5 5 5 5 5 6 6 6 6 6 6 5 5 6 5 6 7 7 7 7 8
14 16 16 15 15 15 15 14 14 13 13 14 14 13 12 12 11 9 8 8 8 7 6 5 4 4 3 3 3 3 3 2 2 2 2 2 3 3 4 4 4 4 4 5 5 5 6 6 7 7 7 7 7 6 6 6 7 7 7 8 7 8 8
14 15 15 14 15 14 14 14 14 13 14 15 14 13 12 12 11 9 8 8 7 6 5 5 4 3 2 3 2 2 2 2 2 2 3 3 3 4 4 5 5 5 5 5 6 6 6 7 7 7 7 7 8 6 7 7 8 7 7 8 8 8 8
14 15 16 15 15 15 15 15 15 16 15 15 14 13 12 13 11 11 9 8 7 6 5 5 4 4 3 3 3 3 3 3 3 3 3 3 4 4 5 5 5 6 6 5 6 6 7 7 8 8 9 8 9 9 8 8 8 8 8 7 7 7 8
13 15 15 16 15 15 15 16 16 16 15 14 13 12 12 12 12 10 9 9 8 7 7 6 5 4 4 3 4 4 4 4 4 4 4 4 4 5 5 5 5 5 5 5 6 6 7 7 8 9 9 9 9 10 9 9 9 8 7 7 7 7 8
14 14 15 16 16 16 16 15 16 15 14 13 13 13 14 12 11 10 9 8 8 7 6 6 5 5 4 4 4 5 4 4 4 4 4 5 5 6 6 5 5 5 5 6 6 6 7 8 8 8 9 9 10 10 9 9 9 8 7 7 8 9 8
12 13 15 17 17 15 16 16 15 15 15 15 14 13 13 11 10 9 9 8 7 6 6 5 5 5 4 4 5 5 5 5 5 5 6 6 6 6 6 6 5 5 6 6 7 7 7 8 8 9 9 9 9 9 8 9 8 7 7 7 7 9 9
13 13 13 14 14 13 14 15 15 13 14 13 12 12 12 11 10 9 8 8 7 7 6 5 5 5 5 5 6 6 6 6 5 6 6 6 5 6 6 6 6 5 5 6 7 7 8 8 9 9 9 9 9 8 8 9 9 8 7 7 7 8 9
11 12 13 14 15 15 15 16 16 14 13 12 12 12 11 10 10 9 9 8 8 6 6 5 5 5 5 6 6 6 6 6 6 6 6 6 6 6 6 7 7 6 7 7 7 8 8 8 8 9 9 8 8 8 8 9 9 8 7 7 7 8 8
10 12 12 15 15 16 17 16 14 14 14 12 12 12 11 10 10 10 9 9 7 6 5 5 6 6 5 6 6 6 7 7 6 7 7 6 6 6 6 6 7 7 7 7 8 8 8 8 8 8 9 9 8 9 9 9 8 7 7 7 7 7 7
9 11 11 14 15 13 13 13 16 16 15 13 13 12 11 11 10 9 9 9 8 6 5 5 6 6 6 6 6 6 6 7 6 6 6 6 6 6 7 7 8 9 9 9 9 10 10 9 10 9 9 9 9 9 9 8 7 6 6 6 6 6 7
10 10 11 12 14 15 16 15 15 15 15 14 13 12 11 11 10 10 9 9 8 7 6 5 6 7 7 6 6 6 7 7 6 6 6 6 6 6 7 7 7 8 8 9 10 10 10 11 10 9 9 9 8 8 7 7 7 7 6 5 5 6 7
11 12 12 14 15 15 16 16 15 15 15 14 14 13 12 10 10 9 9 9 8 7 7 6 7 7 7 7 7 7 7 6 6 6 6 6 7 7 8 8 8 9 9 9 9 9 10 10 10 10 10 9 8 7 7 6 6 5 3 4 5 6 7
12 12 14 15 16 16 15 16 16 16 15 15 14 13 12 10 10 10 10 9 9 7 6 6 7 8 7 7 7 7 7 7 7 6 6 6 7 7 8 8 8 8 8 9 9 9 9 9 9 9 9 9 8 7 6 5 5 3 4 4 5 6 6
12 13 14 14 14 16 16 16 16 16 16 15 15 14 11 10 10 10 11 10 9 8 7 8 8 8 8 8 8 7 7 7 7 7 8 7 7 8 8 8 8 7 8 9 9 9 8 8 9 9 8 8 8 6 5 5 4 8 7 7 7 6 7
11 12 13 14 15 15 15 16 17 17 17 16 14 13 12 10 10 10 11 10 8 8 8 9 9 9 8 8 8 7 8 8 8 8 8 8 9 9 9 8 8 8 9 9 9 8 8 8 8 8 8 6 6 6 6 6 5 10 9 8 7 6 5
10 11 12 13 15 16 17 18 18 17 16 14 13 12 12 12 11 11 11 10 8 7 8 9 9 8 8 8 8 8 8 8 8 9 9 9 9 9 9 8 8 9 9 9 8 8 8 8 9 8 7 6 6 6 6 7 8 11 9 8 8 7 6
9 9 11 12 14 15 15 13 13 14 15 15 14 14 13 13 12 11 10 10 9 9 9 9 8 8 8 8 8 8 8 8 9 9 9 9 9 9 8 7 9 9 8 8 7 8 8 9 9 8 7 7 7 7 6 8 3 9 8 8 9 7 7
8 9 10 11 12 13 14 14 13 14 14 14 14 13 12 11 11 10 10 10 10 10 10 9 9 8 8 8 8 8 8 8 8 9 9 8 9 8 7 8 8 8 7 7 8 8 8 8 9 8 8 8 7 8 7 5 5 10 9 9 9 8 8
7 8 9 9 11 12 13 14 15 15 14 12 13 13 13 13 12 12 11 11 11 10 10 9 9 9 8 8 8 8 8 8 8 8 8 8 8 8 7 8 7 7 7 7 7 7 7 8 8 9 8 8 8 9 8 7 10 12 12 10 10 9 7
5 7 8 8 10 12 12 13 13 14 12 12 12 12 13 13 13 12 12 12 12 11 11 10 10 10 9 9 8 8 7 7 7 8 8 8 8 8 7 7 7 7 6 6 7 8 8 8 8 7 8 9 9 9 8 8 6 11 11 11 10 7 8
4 5 7 9 10 11 12 12 12 12 13 14 14 14 13 13 13 13 12 12 12 12 11 11 11 10 9 8 8 7 6 6 7 7 7 7 7 7 7 7 7 7 6 7 7 8 9 10 10 11 11 11 10 11 10 10 5 10 11 11 11 8 8
5 6 8 9 11 12 14 12 13 13 13 12 13 14 13 13 15 13 13 13 13 13 12 12 11 10 9 8 7 6 6 6 6 7 7 7 8 7 7 6 6 6 6 8 9 8 8 9 7 8 8 13 13 10 10 12 9 9 10 11 10 7 7
5 7 7 8 9 11 12 12 11 10 11 12 14 14 15 14 14 15 14 14 13 13 13 12 10 10 9 8 6 6 6 6 6 6 7 8 7 7 3 2 2 3 2 3 5 5 6 6 7 9 7 10 13 14 12 10 11 6 10 9 9 9 7
6 6 7 8 9 10 10 10 11 12 13 12 13 13 13 12 13 14 13 12 12 14 12 10 9 9 8 6 6 5 6 5 6 7 7 7 7 4 2 3 4 3 2 3 3 4 4 6 5 6 6 8 9 8 11 13 10 6 7 7 8 7 7
6 7 6 6 9 9 8 9 9 10 12 10 8 8 8 10 10 10 10 11 13 13 10 9 9 8 7 6 5 5 5 5 6 6 6 6 4 5 4 3 4 4 4 4 4 4 4 5 5 6 7 8 9 9 9 13 11 8 2 4 4 5 7
7 7 7 7 6 7 6 6 8 10 11 10 8 6 7 8 9 9 9 11 13 11 10 9 8 6 5 5 5 4 4 5 6 6 4 4 5 6 5 5 6 6 4 4 4 4 5 5 6 7 8 7 8 8 9 11 8 2 6 3 2 3 4
6 6 5 6 6 7 8 7 6 7 7 8 6 5 6 7 8 9 9 12 9 9 9 8 7 5 4 4 5 4 3 4 4 4 4 5 6 7 7 6 5 5 4 4 5 5 6 6 6 7 8 7 7 7 8 10 9 4 5 4 1 5 6
6 6 5 5 5 6 7 7 7 6 5 3 4 3 4 5 7 9 11 9 7 7 7 6 6 5 5 5 4 3 2 2 3 3 4 5 5 6 6 6 6 5 4 4 5 5 6 6 7 7 7 7 8 8 7 6 5 4 3 6 3 7 8
6 5 5 5 5 4 3 3 3 3 4 3 3 3 4 5 6 9 10 8 8 8 8 7 7 5 5 4 3 2 1 2 3 3 3 4 5 6 6 6 6 6 5 5 6 6 6 7 7 7 7 6 5 6 8 6 7 4 3 6 9 7 3
6 5 5 4 4 4 2 2 3 4 5 5 4 4 5 7 7 8 8 8 7 7 8 7 6 5 5 4 3 2 1 1 2 3 3 5 5 5 5 5 6 6 6 6 6 6 6 6 7 7 7 6 6 5 7 7 6 6 7 8 8 8 8
6 5 4 4 4 2 2 2 3 2 2 1 1 0 2 3 5 6 6 7 9 7 7 6 6 5 4 4 3 2 2 2 3 4 5 4 4 5 5 5 6 6 7 6 5 5 5 6 6 7 6 7 7 8 8 8 7 8 10 11 9 9 8
6 6 6 6 5 4 3 3 3 4 3 3 3 2 1 0 2 1 4 3 4 6 6 5 5 4 4 4 3 3 3 4 5 5 4 4 4 6 3 4 4 5 3 7 5 4 4 5 6 4 5 5 6 7 7 7 7 8 10 11 11 9 7
7 7 7 6 6 6 6 6 5 5 4 3 2 2 1 1 2 3 5 4 4 4 4 5 4 4 5 5 4 5 5 5 5 4 4 7 7 5 5 12 12 9 4 4 9 10 10 8 4 5 4 4 4 5 5 5 6 11 13 12 10 6 7
6 6 6 6 6 6 7 6 5 5 5 3 2 2 2 2 2 2 2 3 3 3 4 4 4 4 5 5 7 3 3 5 7 4 4 5 5 5 4 5 9 15 16 12 9 9 9 10 9 7 7 6 3 7 7 2 7 10 11 10 8 5 5
7 7 6 5 6 6 6 6 5 5 4 3 2 2 1 1 2 2 2 3 3 3 4 4 4 4 5 5 4 4 3 5 4 5 5 4 4 4 6 2 7 6 7 7 8 8 9 10 10 8 8 9 8 6 4 7 10 11 11 10 6 5 5
Wind_Direction
190 188 188 187 185 187 182 182 179 172 171 169 168 169 171 169 166 173 178 178 172 160 164 172 169 179 182 178 193 208 255 273 296 315 325 335 344 328 315 311 304 295 294 294 309 308 311 309 307 312 312 313 310 315 313 305 299 300 295 293 290 283 279
194 187 185 185 186 184 182 180 178 174 171 172 173 174 177 172 170 180 183 180 174 170 168 176 184 180 191 204 215 225 250 261 272 266 299 278 251 276 283 292 289 288 286 291 300 300 298 301 299 303 307 307 311 304 311 312 304 303 302 302 295 289 284
198 187 184 183 183 181 179 177 179 178 174 176 178 179 181 175 176 184 183 179 174 171 175 182 189 185 189 214 231 225 234 260 264 276 281 304 317 309 302 292 296 290 293 293 284 294 296 298 295 292 294 297 297 303 306 301 304 300 299 302 298 294 296
196 189 181 180 183 180 179 177 178 180 179 180 182 182 179 177 177 186 187 181 174 175 184 189 187 192 197 216 232 229 233 234 258 276 272 272 297 306 306 306 304 297 285 286 297 299 298 298 295 295 291 291 296 301 298 305 307 305 302 303 300 303 301
194 187 177 178 182 179 180 178 179 183 182 182 182 182 179 178 179 186 186 182 180 180 190 192 193 187 209 235 239 238 234 248 250 249 265 278 285 294 299 311 313 311 306 290 285 290 293 296 297 297 296 296 296 300 304 303 305 303 302 305 306 305 303
190 187 180 179 181 181 180 180 181 183 183 183 179 181 181 182 186 190 183 176 178 180 187 194 198 198 233 228 237 229 231 235 236 240 252 266 281 290 299 301 303 306 306 300 296 294 293 293 296 300 299 298 301 303 303 310 312 312 309 306 307 311 309
188 189 184 181 183 181 180 181 182 184 185 182 178 180 186 188 190 194 182 180 184 185 198 204 206 212 228 240 231 236 241 244 237 245 254 262 275 280 283 284 285 293 303 304 295 296 295 293 295 294 293 295 294 295 302 311 314 314 313 308 307 309 306
188 190 189 185 186 182 181 179 180 183 185 181 178 185 192 189 186 191 189 189 194 203 205 212 201 215 230 234 239 240 242 248 253 257 262 269 277 277 273 277 281 286 293 294 298 293 295 295 298 294 294 291 289 290 296 301 303 306 308 308 311 313 316
190 191 190 187 186 184 179 178 179 181 182 180 181 185 188 187 187 187 191 200 201 211 219 229 215 208 221 233 235 234 238 244 252 253 257 266 273 278 285 284 292 288 288 296 301 299 292 292 291 290 289 288 285 284 285 286 291 299 301 303 309 314 312
187 186 193 191 186 181 177 174 172 171 174 174 177 182 185 183 185 184 196 203 209 215 216 226 229 223 215 227 233 234 239 243 247 257 264 267 272 276 288 293 284 295 298 293 294 298 296 289 286 283 282 281 283 280 279 282 287 294 298 304 307 308 308
187 185 182 185 181 178 175 172 171 171 171 173 174 178 183 182 181 183 194 207 223 226 207 215 226 230 237 237 239 231 237 244 249 252 254 261 273 285 290 309 327 320 307 298 295 294 293 290 285 281 274 275 279 283 283 281 284 291 296 303 309 310 310
190 185 184 182 179 177 179 176 171 165 169 174 177 179 183 182 180 185 194 208 224 223 219 218 226 232 237 245 238 239 240 244 250 255 258 264 272 281 298 301 291 293 294 306 304 297 288 287 287 282 278 276 276 277 278 277 279 283 290 300 307 307 310
195 191 186 183 182 181 177 176 174 168 169 174 177 180 181 182 182 186 194 206 214 220 217 215 225 230 242 245 251 242 243 247 250 254 261 262 268 282 289 295 308 314 316 308 304 302 299 298 294 287 281 277 277 278 280 279 278 277 278 289 298 307 310
201 198 191 183 182 183 185 181 174 170 171 174 176 178 182 181 182 187 195 205 212 212 212 213 218 225 231 239 243 244 244 248 250 252 256 265 272 276 282 291 296 298 299 300 297 298 302 300 299 295 286 284 282 283 281 277 269 267 272 281 294 301 304
200 197 192 191 190 188 185 182 177 173 172 173 172 177 178 178 180 188 197 209 211 214 211 214 216 222 231 233 237 239 243 249 250 251 255 258 264 276 283 290 293 292 292 293 294 295 297 299 298 292 287 283 283 281 280 273 269 266 274 286 291 303 312
207 201 197 195 193 191 188 182 174 173 169 171 172 175 177 174 179 188 198 205 207 210 211 212 215 224 229 234 235 237 241 242 244 247 253 263 274 283 284 289 294 294 295 298 296 294 294 296 292 288 288 288 291 288 276 267 263 128 136 256 293 309 310
215 208 204 198 193 191 188 184 176 171 170 171 172 173 171 178 184 194 208 209 209 204 209 212 216 221 226 230 236 239 240 240 242 247 257 265 272 277 283 291 293 290 295 299 295 293 293 289 289 293 296 300 299 293 280 261 246 150 195 222 247 280 307
224 216 207 199 194 190 187 185 179 174 171 169 167 171 175 178 187 195 207 207 210 210 207 212 217 221 223 230 234 237 239 242 246 254 264 270 272 276 285 287 291 293 296 298 295 292 293 294 293 291 291 292 297 291 285 280 174 176 197 229 243 257 292
232 219 209 197 192 191 191 187 181 175 168 161 164 177 179 181 189 199 201 203 203 207 215 212 216 218 225 231 236 239 242 246 254 261 268 273 277 279 281 289 294 298 301 301 301 295 291 295 292 294 293 286 284 286 285 290 171 189 205 224 237 247 262
234 222 210 203 198 194 191 188 178 168 162 164 174 178 185 191 196 199 198 201 200 209 214 215 217 221 225 231 235 240 246 251 259 264 270 273 277 278 279 289 298 303 304 301 296 293 294 296 299 295 288 288 288 284 288 287 124 205 202 221 231 239 250
224 217 211 204 201 196 188 182 166 159 163 168 175 180 183 190 198 194 197 201 204 208 210 212 218 219 226 233 236 241 247 255 263 268 273 273 273 273 279 293 294 299 305 307 306 301 300 301 300 296 289 287 287 293 293 316 172 228 214 223 236 241 246
210 207 207 204 196 192 179 171 164 162 159 166 173 182 187 193 196 201 202 201 207 207 209 211 216 221 226 232 237 242 249 258 268 272 274 273 271 270 276 282 290 298 301 301 306 304 300 296 298 297 291 290 294 294 293 305 192 216 216 219 229 235 250
197 196 198 194 190 183 173 165 162 159 158 168 179 185 193 197 197 201 203 203 208 209 210 214 216 220 223 231 237 247 256 264 273 279 277 271 265 265 271 282 286 286 293 296 303 305 305 312 308 308 300 295 294 291 288 297 209 204 211 214 218 228 261
181 178 183 180 176 171 165 164 164 160 173 181 185 191 196 196 197 198 203 208 208 209 210 215 217 216 224 230 237 248 256 263 270 273 274 265 265 262 268 278 277 290 304 304 310 312 325 323 337 334 324 316 313 301 302 305 284 191 206 213 211 230 272
169 163 170 172 174 168 165 165 170 178 187 185 188 194 197 196 197 199 204 207 211 211 212 215 215 216 220 227 237 247 257 264 263 263 264 265 263 266 273 287 316 342 338 333 327 335 329 332 334 323 326 319 312 316 312 295 277 179 207 213 220 218 259
157 148 163 162 167 163 162 164 175 187 185 190 199 200 199 196 198 204 209 209 211 214 216 216 213 216 221 230 239 247 254 252 251 251 259 263 261 262 280 73 229 258 281 282 288 297 310 315 324 321 336 324 312 312 303 275 278 245 199 212 219 220 257
147 150 152 161 157 163 165 177 188 190 194 199 206 206 203 199 200 206 208 212 215 220 220 214 215 220 223 226 237 246 243 245 249 255 259 259 263 268 211 220 244 238 235 263 275 290 299 309 308 314 301 280 289 299 300 296 302 305 168 214 220 228 224
141 150 151 154 151 166 173 187 196 209 211 213 216 214 202 199 199 202 203 210 221 221 218 215 218 220 216 221 237 239 245 252 258 258 265 267 242 235 221 215 219 237 249 263 270 271 290 298 304 301 297 300 304 308 307 298 278 288 207 201 235 252 233
140 147 147 147 155 177 183 188 205 215 222 217 208 193 196 195 201 205 204 216 223 226 222 217 213 205 207 217 226 233 247 255 256 257 246 242 235 235 220 209 227 247 249 260 274 285 287 291 296 296 300 307 310 314 313 300 280 238 290 63 22 303 273
138 137 149 181 178 181 197 208 218 226 232 235 214 190 189 196 204 210 214 223 222 221 211 199 184 178 185 210 227 234 252 264 264 251 244 238 237 227 230 230 238 247 250 258 276 286 289 287 286 292 298 310 316 309 326 328 346 353 305 313 359 297 282
147 149 149 163 160 162 188 207 214 225 218 186 164 172 191 204 219 217 225 225 216 205 198 180 165 161 192 215 224 228 233 253 265 259 250 241 230 224 225 234 239 249 237 249 265 268 277 279 283 288 292 303 318 324 324 282 284 317 240 246 279 281 265
135 136 134 137 134 140 177 184 212 215 222 207 204 204 209 222 227 235 236 230 212 191 182 172 161 174 204 212 209 197 193 244 256 253 253 247 237 229 231 241 241 247 243 254 267 273 273 279 282 286 290 300 313 308 301 317 311 306 9 355 341 318 317
140 148 149 150 118 128 155 215 235 243 252 253 231 232 231 226 228 235 236 231 213 190 165 158 167 179 186 195 183 153 157 236 288 298 254 232 237 239 238 239 243 245 251 260 268 272 274 278 281 284 293 296 301 291 296 326 341 351 347 350 337 334 327
132 125 109 101 117 138 168 194 237 252 269 305 20 267 287 270 245 227 229 208 219 188 153 160 164 190 195 165 159 178 179 210 166 231 263 242 247 265 257 248 248 250 252 268 275 272 277 282 289 298 303 314 319 321 327 333 340 9 349 334 331 322 321
129 124 127 134 130 141 120 107 89 73 63 72 57 28 1 283 280 234 165 183 140 141 174 172 154 162 166 172 191 197 206 247 237 240 245 263 252 253 300 337 303 298 324 51 11 15 310 292 295 318 336 321 341 342 346 357 359 348 332 311 305 294 303
120 117 113 109 113 108 101 87 78 74 73 77 56 69 98 122 189 228 223 185 166 173 179 157 165 195 205 209 221 238 234 239 273 275 261 278 287 271 98 55 41 6 310 105 69 59 46 36 41 16 356 333 32 43 13 1 341 321 316 317 319 305 264
113 110 104 109 105 93 85 85 83 86 87 81 88 113 130 154 156 176 166 134 176 185 174 173 191 220 247 242 265 302 309 290 284 268 260 274 283 282 260 127 55 32 40 71 88 80 80 76 76 61 24 1 37 109 123 31 336 330 325 332 341 330 296
98 98 102 100 96 97 95 92 92 93 91 95 113 112 159 170 158 162 190 161 182 184 184 196 207 234 261 266 257 125 240 271 273 278 276 267 270 263 267 185 110 83 31 33 77 96 100 101 101 97 87 59 43 30 41 26 3 346 339 338 343 332 300